Kapal Labobar
Kapal Labobar

Jadwal Kapal Labobar Terbaru Juni 2019

Diposting pada

Jadwal kapal labobar akhir-akhir ini banyak dicari karena musim liburan akhir tahun akan segera tiba, mereka mencari jadwal keberangkatan kapal untuk mencari waktu yang sesuai dengan jadwal mereka. Bagi mereka yang suka bepergian dengan menggunakan alat transportasi laut, pastinya sudah mengenal kapal labobar. Kapal labobar biasa digunakan untuk mengangkut penumpang yang ingin berkunjung ke berbagai wilayah yang ada di Indonesia.

Jadwal kapal labobar memiliki peran penting bagi pengelola pelabuhan dan para penumpang, dengan adanya jadwal yang jelas maka penumpang tidak akan kesusahan untuk mendapatkan informasi jadwal keberangkatan dan jadwal tiba di tempat tujuan. Nama labobar pada kapal milik PT Pelni ini berasal dari nama gunung yang ada di Kabupaten Maluku Tenggara Barat. Kapal labobar berkapasitas 3.084 penumpang, kapal ini merupakan kapal berkapasitas terbesar yang dimiliki oleh PT Pelni.

Jadwal kapal pelni labobar selain berisi tentang jadwal pemberangkatan juga berisi tentang fasilitas yang dapat dipilih oleh penumpang. Penumpang yang menggunakan tiket kelas 1 akan mendapatkan beberapa fasilitas seperti 1 kamar berisi 2 tempat tidur lengkap dengan ac dan toilet yang menggunakan shower, tiket kelas 1 hanya untuk 40 penumpang saja. Penumpang yang menggunakan kelas 2 atau ekonomi duduk atau tiduran di bawah tanpa menggunakan tempat tidur dan terdapat satu kamar mandi yang dapat digunakan secara bergantian.

Kapal labobar ini melewati beberapa pelabuhan besar yang ada di Indonesia seperti Surabaya, Balikpapan, Pantoloan (Donggala), Amurang, Bitung, Ternate, Sorong, Manokwari, Nabire, Serui, Biak dan Jayapura. Berikut ini adalah jadwal kapal labobar terbaru:

Kapal Labobar
Kapal Labobar

Jadwal Kapal Labobar Juni 2019

BERANGKAT DARI PELABUHANTIBA DI PELABUHANWAKTU KEBERANGKATAN KAPAL LABOBARWAKTU TIBA KAPAL LABOBAR
TERNATESORONG07-06-2019 | 11:0008-06-2019 | 05:00
SORONGMANOKWARI08-06-2019 | 08:0008-06-2019 | 20:00
MANOKWARINABIRE08-06-2019 | 23:0009-06-2019 | 09:00
NABIRESERUI09-06-2019 | 12:0009-06-2019 | 18:00
SERUIJAYAPURA09-06-2019 | 21:0010-06-2019 | 15:00
JAYAPURASERUI10-06-2019 | 21:0011-06-2019 | 14:00
SERUINABIRE11-06-2019 | 16:0011-06-2019 | 22:00
NABIREMANOKWARI11-06-2019 | 23:5912-06-2019 | 10:00
MANOKWARISORONG12-06-2019 | 12:0013-06-2019 | 00:01
SORONGTERNATE13-06-2019 | 03:0013-06-2019 | 20:00
TERNATEBITUNG13-06-2019 | 22:0014-06-2019 | 07:00
BITUNGPANTOLOAN (DONGGALA)14-06-2019 | 10:0015-06-2019 | 14:00
PANTOLOAN (DONGGALA)TANJUNG PERAK (SURABAYA)16-06-2019 | 06:0017-06-2019 | 10:00
TANJUNG PERAK (SURABAYA)BALIKPAPAN17-06-2019 | 14:0018-06-2019 | 19:00
BALIKPAPANTANJUNG PERAK (SURABAYA)18-06-2019 | 22:0020-06-2019 | 02:00
TANJUNG PERAK (SURABAYA)BALIKPAPAN20-06-2019 | 12:0021-06-2019 | 17:00
BALIKPAPANPANTOLOAN (DONGGALA)21-06-2019 | 20:0022-06-2019 | 08:00
PANTOLOAN (DONGGALA)BITUNG22-06-2019 | 10:0023-06-2019 | 14:00
BITUNGTERNATE23-06-2019 | 18:0024-06-2019 | 03:00
TERNATESORONG24-06-2019 | 05:0024-06-2019 | 22:00
SORONGMANOKWARI25-06-2019 | 01:0025-06-2019 | 13:00
MANOKWARINABIRE25-06-2019 | 16:0026-06-2019 | 02:00
NABIRESERUI26-06-2019 | 04:0026-06-2019 | 10:00
SERUIJAYAPURA26-06-2019 | 12:0027-06-2019 | 05:00
JAYAPURASERUI27-06-2019 | 10:0028-06-2019 | 03:00
SERUINABIRE28-06-2019 | 05:0028-06-2019 | 11:00
NABIREMANOKWARI28-06-2019 | 13:0028-06-2019 | 23:00
MANOKWARISORONG29-06-2019 | 01:0029-06-2019 | 13:00
SORONGTERNATE29-06-2019 | 15:0030-06-2019 | 08:00
TERNATEBITUNG30-06-2019 | 10:0030-06-2019 | 18:00
BITUNGPANTOLOAN (DONGGALA)30-06-2019 | 21:0002-07-2019 | 01:00
PANTOLOAN (DONGGALA)BALIKPAPAN02-07-2019 | 03:0002-07-2019 | 15:00
BALIKPAPANTANJUNG PERAK (SURABAYA)02-07-2019 | 17:0003-07-2019 | 21:00
TANJUNG PERAK (SURABAYA)BALIKPAPAN04-07-2019 | 07:0005-07-2019 | 12:00

Harga tiket kapal labobar bervariasi mulai dari bayi (0 – 23 bulan), anak- anak (2 – 11 tahun) hingga dewasa(>11 tahun). Semoga jadwal kapal labobar ini bermanfaat dan selamat sampai tujuan.